Ravenna, OH

5:23 AM EST on November 21, 2017 (GMT -0500)
Ravenna

Weather History for KPOV - February, 2014

Change the Weather History Date:

Thursday, February 20, 2014

  Actual Average (KCAK) Record (KCAK)
Temperature  
Mean Temperature 35 °F -  
Max Temperature 52 °F 38 °F 67 °F (2016)
Min Temperature 19 °F 23 °F -10 °F (2015)
Degree Days  
Heating Degree Days 30    
Moisture  
Dew Point 32 °F    
Average Humidity 87    
Maximum Humidity 100    
Minimum Humidity 63    
Precipitation  
Precipitation 0.24 in - - ()
Sea Level Pressure  
Sea Level Pressure 29.86 in    
Wind  
Wind Speed 4 mph (SE)    
Max Wind Speed 13 mph    
Max Gust Speed 20 mph    
Visibility 6 miles    
Events Fog , Rain , Snow    
Averages and records for this station are not official NWS values.
T = Trace of Precipitation, MM = Missing Value Source: NWS Daily Summary

Daily Weather History Graph

Daily Weather History Graph

Search for Another Location

Airport or City:

Trip Planner

Search our weather history database for the weather conditions in past years. The results will help you decide how hot, cold, wet, or windy it might be!

Date:

Astronomy

Feb. 20, 2014 Rise Set
Actual Time 7:12 AM EST 6:05 PM EST
Civil Twilight 6:44 AM EST 6:33 PM EST
Nautical Twilight 6:12 AM EST 7:05 PM EST
Astronomical Twilight 5:40 AM EST 7:37 PM EST
Moon No Moon Rise 9:51 AM EST (2/20)
Length of Visible Light 11h 48m
Length of Day
10h 52m
Waning Gibbous, 71% of the Moon is Illuminated
Feb 20
Waning Gibbous
Feb 22
Last Quarter
Mar 1
New
Mar 8
First Quarter
Mar 16
Full

Hourly Weather History & Observations

Time (EST) Temp. Windchill Dew Point Humidity Pressure Visibility Wind Dir Wind Speed Gust Speed Precip Events Conditions
12:13 AM 26.6 °F - 26.6 °F 100% 30.07 in 0.2 mi Calm Calm - N/A Fog Light Freezing Fog
12:33 AM 26.4 °F - 26.4 °F 100% 30.07 in 0.5 mi Calm Calm - N/A Fog Light Freezing Fog
12:53 AM 23.9 °F - 24.1 °F 100% 30.06 in 0.2 mi Calm Calm - N/A Fog Light Freezing Fog
1:13 AM 22.6 °F - 22.8 °F 100% 30.06 in 0.2 mi Calm Calm - N/A Fog Light Freezing Fog
1:33 AM 25.7 °F - 25.9 °F 100% 30.08 in 0.2 mi Calm Calm - N/A Fog Light Freezing Fog
1:52 AM - - - N/A% 30.09 in 3.0 mi SSW 4.6 mph - N/A   Clear
2:13 AM 27.5 °F - 27.7 °F 100% 30.09 in 2.5 mi Calm Calm - N/A   Clear
2:33 AM 25.9 °F - 25.9 °F 100% 30.10 in 0.5 mi Calm Calm - N/A Fog Light Freezing Fog
2:52 AM 26.4 °F - 26.4 °F 100% 30.10 in 0.8 mi Calm Calm - N/A   Mist
3:13 AM 21.4 °F - 21.4 °F 100% 30.08 in 0.2 mi Calm Calm - N/A Fog Light Freezing Fog
3:33 AM 20.7 °F - 20.8 °F 100% 30.08 in 0.2 mi Calm Calm - N/A Fog Light Freezing Fog
3:53 AM 21.0 °F - 21.2 °F 100% 30.09 in 0.2 mi Calm Calm - N/A Fog Light Freezing Fog
4:13 AM 19.0 °F 13.9 °F 19.2 °F 100% 30.08 in 0.2 mi East 3.5 mph - N/A Fog Light Freezing Fog
4:33 AM 19.6 °F - 19.8 °F 100% 30.07 in 0.2 mi Calm Calm - N/A Fog Light Freezing Fog
4:52 AM 21.6 °F 16.8 °F 21.6 °F 100% 30.07 in 0.2 mi SE 3.5 mph - N/A Snow Light Snow
5:13 AM 23.4 °F 17.4 °F 23.5 °F 100% 30.06 in 0.5 mi ESE 4.6 mph - N/A Snow Light Snow
5:33 AM - - - N/A% 30.06 in 1.8 mi ESE 5.8 mph - N/A   Mist
5:52 AM 23.2 °F 16.0 °F 23.2 °F 100% 30.05 in 0.8 mi East 5.8 mph - N/A   Mist
6:13 AM 23.0 °F 13.1 °F 23.2 °F 100% 30.05 in 1.0 mi East 9.2 mph - N/A   Mist
6:33 AM 25.2 °F 15.7 °F 25.2 °F 100% 30.05 in 2.0 mi East 9.2 mph - N/A   Clear
6:53 AM 25.0 °F 15.5 °F 25.2 °F 100% 30.03 in 1.8 mi East 9.2 mph - N/A   Mist
7:13 AM 24.6 °F 16.7 °F 24.8 °F 100% 30.02 in 2.5 mi East 6.9 mph - N/A   Clear
7:33 AM 25.7 °F 20.1 °F 25.7 °F 100% 30.04 in 2.5 mi East 4.6 mph - N/A   Clear
7:53 AM 26.6 °F 19.1 °F 26.8 °F 100% 30.04 in 3.0 mi ESE 6.9 mph - N/A   Clear
8:13 AM 28.0 °F 21.7 °F 28.2 °F 100% 30.03 in 3.0 mi East 5.8 mph - N/A   Clear
8:33 AM 29.3 °F 22.3 °F 29.7 °F 100% 30.02 in 4.0 mi ESE 6.9 mph - N/A   Clear
8:53 AM - - - N/A% 29.99 in 5.0 mi East 10.4 mph - N/A   Clear
9:13 AM 31.6 °F 23.7 °F - N/A% 29.98 in 5.0 mi ESE 9.2 mph - N/A   Haze
9:33 AM 32.2 °F 23.8 °F - N/A% 29.95 in 7.0 mi ESE 10.4 mph - N/A   Clear
9:53 AM - - - N/A% 29.91 in 10.0 mi East 12.7 mph 19.6 mph N/A   Scattered Clouds
10:13 AM 34.0 °F 26.0 °F 34.2 °F 100% 29.91 in 10.0 mi ESE 10.4 mph 17.3 mph N/A   Scattered Clouds
10:33 AM 35.6 °F 27.1 °F 30.4 °F 81% 29.88 in 10.0 mi East 12.7 mph 18.4 mph N/A   Light Drizzle
10:52 AM 36.1 °F 28.7 °F 28.4 °F 73% 29.89 in 10.0 mi ESE 10.4 mph - N/A Rain Light Rain
11:13 AM 35.2 °F 27.6 °F 30.0 °F 81% 29.88 in 5.0 mi ESE 10.4 mph - 0.04 in Rain Rain
11:33 AM 35.2 °F 28.8 °F 30.6 °F 83% 29.88 in 7.0 mi SE 8.1 mph - 0.08 in Rain Rain
11:52 AM 34.9 °F 27.7 °F 30.9 °F 85% 29.87 in 4.0 mi ESE 9.2 mph - 0.15 in Rain Heavy Rain
12:13 PM 34.3 °F 27.7 °F 34.0 °F 99% 29.85 in 1.2 mi ESE 8.1 mph - 0.08 in   Overcast
12:33 PM 35.8 °F 28.3 °F 36.0 °F 100% 29.82 in 7.0 mi ESE 10.4 mph - 0.08 in   Overcast
12:52 PM - - - N/A% 29.80 in 10.0 mi ESE 12.7 mph 17.3 mph 0.09 in   Overcast
1:13 PM 36.5 °F 28.7 °F 36.5 °F 100% 29.79 in 10.0 mi ESE 11.5 mph - N/A   Overcast
1:33 PM 37.2 °F 30.6 °F 36.7 °F 98% 29.77 in 10.0 mi SE 9.2 mph 17.3 mph N/A   Overcast
1:53 PM 37.8 °F 33.3 °F 37.0 °F 97% 29.76 in 10.0 mi SE 5.8 mph - N/A   Overcast
2:13 PM 38.8 °F 36.5 °F 37.6 °F 95% 29.76 in 10.0 mi SSE 3.5 mph - N/A   Overcast
2:33 PM 40.3 °F 37.1 °F 37.6 °F 90% 29.75 in 10.0 mi SSE 4.6 mph - N/A   Overcast
2:53 PM 43.0 °F 39.5 °F 37.8 °F 82% 29.75 in 10.0 mi South 5.8 mph - N/A   Overcast
3:13 PM 45.7 °F 42.7 °F 38.3 °F 75% 29.75 in 10.0 mi South 5.8 mph - N/A   Overcast
3:33 PM 46.6 °F - 38.5 °F 73% 29.76 in 10.0 mi Calm Calm - N/A   Overcast
3:52 PM 46.2 °F - 38.3 °F 74% 29.75 in 10.0 mi Calm Calm - N/A   Overcast
4:13 PM 45.5 °F 43.2 °F 37.2 °F 73% 29.75 in 10.0 mi ESE 4.6 mph - N/A   Overcast
4:33 PM 42.8 °F 40.1 °F 37.4 °F 81% 29.73 in 10.0 mi SE 4.6 mph - N/A   Mostly Cloudy
4:52 PM 45.5 °F 42.5 °F 38.5 °F 76% 29.73 in 10.0 mi SE 5.8 mph - N/A   Overcast
5:13 PM 47.8 °F - 38.8 °F 71% 29.71 in 10.0 mi SE 9.2 mph 17.3 mph N/A   Overcast
5:33 PM 47.3 °F - 38.3 °F 71% 29.71 in 10.0 mi ESE 8.1 mph - N/A   Overcast
5:53 PM 44.2 °F 39.7 °F 37.0 °F 76% 29.70 in 10.0 mi East 8.1 mph - N/A   Overcast
6:13 PM 41.0 °F 34.7 °F 36.1 °F 83% 29.70 in 10.0 mi East 10.4 mph - N/A   Overcast
6:33 PM 40.1 °F 34.7 °F 35.6 °F 84% 29.69 in 10.0 mi East 8.1 mph - N/A   Overcast
6:52 PM 41.2 °F 36.6 °F 37.0 °F 85% 29.68 in 10.0 mi ESE 6.9 mph - N/A   Overcast
7:13 PM 45.0 °F 41.2 °F 37.8 °F 76% 29.68 in 10.0 mi SE 6.9 mph - N/A   Mostly Cloudy
7:33 PM 45.5 °F 41.3 °F 37.6 °F 74% 29.66 in 10.0 mi SE 8.1 mph - N/A Rain Light Rain
7:52 PM 47.5 °F - 38.1 °F 70% 29.66 in 10.0 mi SE 4.6 mph - N/A   Overcast
8:13 PM 47.7 °F - 37.8 °F 69% 29.65 in 10.0 mi SE 6.9 mph - N/A   Overcast
8:33 PM 47.7 °F - 37.9 °F 69% 29.65 in 10.0 mi SE 4.6 mph - N/A   Mostly Cloudy
8:53 PM 50.2 °F - 39.0 °F 66% 29.65 in 10.0 mi SSE 5.8 mph - N/A   Mostly Cloudy
9:13 PM 51.3 °F - 39.0 °F 63% 29.66 in 10.0 mi SSE 6.9 mph - N/A   Overcast
9:33 PM 50.9 °F - 38.8 °F 63% 29.64 in 10.0 mi SE 6.9 mph - N/A   Overcast
9:52 PM 50.0 °F - 40.5 °F 70% 29.64 in 10.0 mi SSE 4.6 mph - N/A Rain Light Rain
10:13 PM 49.6 °F - 41.0 °F 72% 29.63 in 10.0 mi SE 6.9 mph - N/A   Mostly Cloudy
10:33 PM 49.8 °F - 41.0 °F 72% 29.61 in 10.0 mi SE 6.9 mph - N/A   Mostly Cloudy
10:52 PM 51.1 °F - 41.7 °F 70% 29.60 in 10.0 mi SSE 5.8 mph - N/A   Mostly Cloudy
11:13 PM 51.8 °F - 41.9 °F 69% 29.59 in 10.0 mi SSE 6.9 mph - N/A   Scattered Clouds
11:33 PM 51.8 °F - 41.9 °F 69% 29.60 in 10.0 mi SSW 4.6 mph - N/A Rain Light Rain
11:53 PM 52.5 °F - 43.7 °F 72% 29.61 in 10.0 mi South 10.4 mph 16.1 mph N/A Rain Rain